SLM994 SMJP-EHAM

Flight info

Callsign SLM994
Flight time N/A
Altitude 35000
Route TODOL DCT BUXEX DCT VALOV DCT 13N050W DCT QUETN/M083F350 DCT 25N040W/M083F370 30N035W 35N030W 42N020W 45N015W DCT TAMEL DCT EVBAK DCT GAPLI/N0473F370 DCT GAJIT DCT ENHAQ M197 REDFA
Aircraft A346/H-SDE2E3FGHIJ3J4J5M1RWXY/LB1D1

Departure

Time 2026-04-30 21:59
Airport Johan Adolf Pengel International Airport (SMJP)

Arrival

Time N/A
Airport Amsterdam Airport Schiphol (EHAM)
Time Latitude Longitude Altitude Speed Heading
2026-04-30 20:39 5.45515 -55.19804 70 ft 0 kts 88°
2026-04-30 21:53 5.45514 -55.19813 61 ft 0 kts 88°
2026-04-30 21:53 5.45514 -55.19798 70 ft 1 kts 93°
2026-04-30 21:53 5.45512 -55.19777 62 ft 8 kts 98°
2026-04-30 21:53 5.45506 -55.19759 66 ft 1 kts 116°
2026-04-30 21:54 5.45462 -55.19739 67 ft 8 kts 219°
2026-04-30 21:54 5.45441 -55.19789 64 ft 1 kts 277°
2026-04-30 21:54 5.45444 -55.19806 65 ft 0 kts 277°
2026-04-30 21:54 5.45446 -55.19993 68 ft 32 kts 269°
2026-04-30 21:55 5.45444 -55.20143 69 ft 13 kts 269°
2026-04-30 21:55 5.45442 -55.20258 68 ft 26 kts 268°
2026-04-30 21:55 5.45352 -55.20349 63 ft 20 kts 172°
2026-04-30 21:55 5.45317 -55.20339 60 ft 15 kts 154°
2026-04-30 21:56 5.45275 -55.20249 61 ft 0 kts 85°
2026-04-30 21:56 5.45275 -55.20248 62 ft 1 kts 85°
2026-04-30 21:57 5.45276 -55.20236 64 ft 3 kts 85°
2026-04-30 21:57 5.45278 -55.20211 62 ft 4 kts 85°
2026-04-30 21:57 5.45280 -55.20191 60 ft 0 kts 85°
2026-04-30 21:58 5.45284 -55.20130 58 ft 36 kts 85°
2026-04-30 21:58 5.45288 -55.19615 67 ft 108 kts 89°
2026-04-30 21:59 5.45293 -55.18644 66 ft 168 kts 89°
2026-04-30 21:59 5.45290 -55.17354 370 ft 193 kts 87°
2026-04-30 21:59 5.45314 -55.15971 977 ft 201 kts 87°
2026-04-30 22:00 5.45434 -55.13079 2368 ft 217 kts 85°
2026-04-30 22:00 5.46806 -55.10334 3693 ft 241 kts 34°
2026-04-30 22:00 5.48186 -55.09463 4944 ft 228 kts 32°
2026-04-30 22:01 5.49546 -55.08698 6047 ft 219 kts 29°
2026-04-30 22:01 5.50872 -55.07963 6861 ft 223 kts 39°
2026-04-30 22:01 5.51951 -55.06730 7008 ft 255 kts 66°
2026-04-30 22:01 5.52740 -55.04988 7031 ft 294 kts 60°
2026-04-30 22:02 5.53990 -55.03192 7049 ft 333 kts 52°
2026-04-30 22:02 5.55702 -55.01363 7057 ft 371 kts 44°
2026-04-30 22:02 5.57675 -54.99598 7758 ft 381 kts 42°
2026-04-30 22:02 5.59589 -54.97926 8839 ft 341 kts 42°
2026-04-30 22:03 5.61271 -54.96516 9884 ft 289 kts 40°
2026-04-30 22:03 5.62710 -54.95351 10524 ft 250 kts 40°
2026-04-30 22:03 5.64058 -54.94268 10245 ft 249 kts 40°
2026-04-30 22:03 5.65390 -54.93158 9883 ft 249 kts 42°
2026-04-30 22:04 5.66701 -54.92037 9684 ft 241 kts 42°
2026-04-30 22:04 5.67936 -54.90978 9649 ft 226 kts 42°
2026-04-30 22:04 5.70428 -54.88838 9308 ft 257 kts 42°
2026-04-30 22:05 5.71789 -54.87673 10149 ft 258 kts 42°
2026-04-30 22:05 5.73176 -54.86479 10815 ft 264 kts 42°
2026-04-30 22:05 5.74594 -54.85252 11483 ft 270 kts 42°
2026-04-30 22:05 5.76033 -54.84002 12125 ft 275 kts 42°
2026-04-30 22:06 5.77538 -54.82688 12777 ft 281 kts 42°
2026-04-30 22:06 5.80540 -54.80052 14017 ft 287 kts 42°
2026-04-30 22:06 5.82055 -54.78720 14545 ft 290 kts 42°
2026-04-30 22:07 5.83591 -54.77374 15077 ft 294 kts 42°
2026-04-30 22:07 5.85140 -54.76022 15581 ft 297 kts 42°
2026-04-30 22:07 5.86709 -54.74659 16108 ft 300 kts 42°
2026-04-30 22:07 5.88303 -54.73282 16626 ft 303 kts 42°
2026-04-30 22:08 5.89915 -54.71894 17130 ft 307 kts 42°
2026-04-30 22:08 5.91547 -54.70492 17633 ft 310 kts 42°
2026-04-30 22:08 5.93199 -54.69078 18155 ft 313 kts 42°
2026-04-30 22:08 5.94873 -54.67646 18570 ft 316 kts 42°
2026-04-30 22:09 5.96575 -54.66203 19013 ft 319 kts 42°
2026-04-30 22:09 5.98280 -54.64752 19437 ft 322 kts 42°
2026-04-30 22:09 5.99973 -54.63311 19851 ft 325 kts 42°
2026-04-30 22:09 6.01708 -54.61835 20274 ft 328 kts 42°
2026-04-30 22:10 6.03484 -54.60327 20696 ft 331 kts 42°
2026-04-30 22:10 6.05251 -54.58828 21105 ft 334 kts 42°
2026-04-30 22:10 6.07014 -54.57335 21489 ft 337 kts 42°
2026-04-30 22:10 6.08836 -54.55849 21891 ft 340 kts 39°
2026-04-30 22:11 6.12828 -54.53192 22668 ft 348 kts 31°
2026-04-30 22:11 6.15011 -54.52109 23038 ft 352 kts 25°
2026-04-30 22:11 6.17303 -54.51197 23421 ft 356 kts 22°
2026-04-30 22:12 6.19684 -54.50460 23714 ft 360 kts 16°
2026-04-30 22:12 6.22132 -54.49884 24039 ft 362 kts 15°
2026-04-30 22:12 6.24571 -54.49249 24355 ft 363 kts 24°
2026-04-30 22:12 6.26849 -54.48172 24693 ft 362 kts 30°
2026-04-30 22:13 6.29054 -54.46938 25027 ft 363 kts 32°
2026-04-30 22:13 6.31154 -54.45534 25343 ft 363 kts 40°
2026-04-30 22:13 6.33078 -54.43886 25628 ft 363 kts 43°
2026-04-30 22:13 6.34950 -54.42178 25863 ft 364 kts 44°
2026-04-30 22:14 6.36820 -54.40445 26109 ft 365 kts 44°
2026-04-30 22:14 6.38686 -54.38703 26356 ft 367 kts 44°
2026-04-30 22:14 6.40540 -54.36930 26611 ft 367 kts 45°
2026-04-30 22:14 6.42342 -54.35173 27206 ft 356 kts 45°
2026-04-30 22:15 6.44117 -54.33425 27375 ft 360 kts 45°
2026-04-30 22:15 6.45911 -54.31644 27522 ft 363 kts 45°
2026-04-30 22:15 6.47720 -54.29842 27668 ft 367 kts 45°
2026-04-30 22:15 6.49542 -54.28023 27809 ft 371 kts 45°
2026-04-30 22:16 6.51367 -54.26166 27973 ft 375 kts 46°
2026-04-30 22:16 6.53186 -54.24281 28156 ft 377 kts 46°
2026-04-30 22:17 6.58684 -54.18520 28698 ft 386 kts 46°
2026-04-30 22:17 6.64418 -54.12474 28702 ft 409 kts 46°
2026-04-30 22:18 6.70501 -54.06074 28708 ft 433 kts 46°
2026-04-30 22:19 6.74021 -54.02377 28721 ft 446 kts 46°
2026-04-30 22:19 6.76185 -54.00108 28721 ft 453 kts 46°
2026-04-30 22:19 6.80622 -53.95456 28738 ft 467 kts 46°
2026-04-30 22:20 6.82897 -53.93073 28737 ft 474 kts 46°
2026-04-30 22:20 6.86540 -53.89264 28736 ft 484 kts 46°
2026-04-30 22:21 6.87707 -53.88064 28746 ft 488 kts 45°
2026-04-30 22:21 6.92557 -53.83148 28753 ft 500 kts 45°
2026-04-30 22:22 6.97538 -53.78205 28752 ft 510 kts 46°
2026-04-30 22:22 7.02366 -53.73058 28740 ft 494 kts 47°
2026-04-30 22:23 7.07073 -53.68177 28716 ft 477 kts 45°
2026-04-30 22:23 7.11811 -53.63394 28659 ft 484 kts 45°
2026-04-30 22:24 7.14196 -53.60995 28547 ft 485 kts 45°
2026-04-30 22:24 7.16592 -53.58589 28401 ft 486 kts 45°
2026-04-30 22:24 7.18999 -53.56174 28257 ft 488 kts 45°
2026-04-30 22:24 7.21410 -53.53760 28127 ft 489 kts 45°
2026-04-30 22:25 7.26248 -53.48930 27991 ft 489 kts 45°
2026-04-30 22:25 7.28644 -53.46543 27957 ft 489 kts 45°
2026-04-30 22:25 7.31063 -53.44136 27899 ft 488 kts 45°
2026-04-30 22:26 7.35896 -53.39333 27795 ft 488 kts 45°
2026-04-30 22:26 7.38321 -53.36925 27743 ft 488 kts 45°
2026-04-30 22:26 7.40745 -53.34521 27651 ft 488 kts 45°
2026-04-30 22:27 7.43166 -53.32123 27642 ft 488 kts 45°
2026-04-30 22:27 7.45607 -53.29707 27773 ft 494 kts 45°
2026-04-30 22:27 7.50506 -53.24841 28681 ft 494 kts 45°
2026-04-30 22:28 7.55404 -53.19921 29346 ft 499 kts 45°
2026-04-30 22:28 7.57875 -53.17421 29679 ft 501 kts 45°
2026-04-30 22:29 7.65275 -53.09848 30504 ft 508 kts 45°
2026-04-30 22:29 7.67752 -53.07278 30752 ft 510 kts 45°
2026-04-30 22:30 7.77573 -52.96900 31677 ft 514 kts 45°
2026-04-30 22:31 7.84919 -52.89000 32521 ft 513 kts 45°
2026-04-30 22:32 7.92203 -52.81093 33422 ft 511 kts 45°
2026-04-30 22:32 7.97061 -52.75923 34155 ft 505 kts 43°
2026-04-30 22:33 8.04615 -52.68488 34731 ft 505 kts 41°
2026-04-30 22:33 8.09614 -52.63498 35155 ft 505 kts 42°
2026-04-30 22:34 8.17091 -52.56004 35753 ft 503 kts 42°
2026-04-30 22:35 8.22065 -52.51032 35883 ft 495 kts 42°
2026-04-30 22:36 8.31302 -52.41791 35900 ft 449 kts 41°
2026-04-30 22:36 8.33512 -52.39583 35901 ft 442 kts 41°
2026-04-30 22:37 8.42363 -52.30746 35911 ft 457 kts 41°
2026-04-30 22:37 8.46947 -52.26163 35913 ft 469 kts 41°
2026-04-30 22:38 8.51641 -52.21465 35911 ft 481 kts 41°
2026-04-30 22:38 8.56455 -52.16644 35911 ft 492 kts 42°
2026-04-30 22:39 8.58896 -52.14199 35911 ft 497 kts 42°
2026-04-30 22:40 8.73499 -51.99558 35908 ft 496 kts 42°
2026-04-30 22:41 8.85561 -51.87447 35903 ft 467 kts 42°
2026-04-30 22:43 8.99663 -51.73278 35908 ft 484 kts 40°
2026-04-30 22:44 9.09403 -51.63508 35912 ft 502 kts 40°
2026-04-30 22:45 9.19121 -51.53714 35900 ft 472 kts 40°
2026-04-30 22:45 9.23731 -51.49072 35912 ft 462 kts 40°
2026-04-30 22:47 9.37539 -51.35170 35917 ft 468 kts 40°
2026-04-30 22:48 9.46773 -51.25859 35919 ft 470 kts 40°
2026-04-30 22:49 9.60681 -51.11818 35918 ft 470 kts 40°
2026-04-30 22:50 9.70913 -51.03939 35918 ft 456 kts 17°
2026-04-30 22:51 9.76934 -51.01972 35925 ft 454 kts 13°
2026-04-30 22:52 9.86021 -50.99172 35924 ft 455 kts 13°
2026-04-30 22:53 9.98087 -50.95413 35920 ft 455 kts 13°
2026-04-30 22:53 10.07168 -50.92574 35923 ft 455 kts 13°
2026-04-30 22:55 10.22314 -50.87833 35924 ft 455 kts 13°
2026-04-30 22:56 10.34383 -50.84051 35924 ft 455 kts 13°
2026-04-30 22:57 10.49548 -50.79296 35928 ft 455 kts 13°
2026-04-30 22:58 10.61637 -50.75501 35928 ft 455 kts 13°
2026-04-30 22:59 10.79777 -50.69801 35933 ft 455 kts 13°